Location: Eurasberg
(48.3353°N, 11.0839°E)
Time: 14:45:18
(UTC+00:00)

BREEZE-M DEB (TANK) - Visible Passes

Search period start: 11 April 2026 00:00
Search period end: 21 April 2026 00:00
Orbit: 289 x 14631 km, 49.6° (Epoch: 10 April)

Date Brightness Start Highest point End Pass type
(mag) Time Alt. Az. Time Alt. Az. Time Alt. Az.
11 Apr 6.5 19:10:07 10° NW 20:17:35 44° WSW 20:31:19 10° S visible
12 Apr 6.5 17:01:14 10° WNW 18:44:11 68° SW 19:00:17 10° SSE visible
13 Apr 7.1 21:15:21 10° NW 21:45:05 19° W 21:57:21 10° WSW visible
14 Apr 6.7 19:12:37 10° NW 20:16:23 40° WSW 20:30:35 10° SSW visible
15 Apr 6.6 17:04:39 10° WNW 18:43:47 64° SW 18:59:55 10° SSE visible
16 Apr 7.3 21:18:21 10° NW 21:42:40 16° WNW 21:54:27 10° WSW visible
17 Apr 6.8 19:14:32 10° NW 20:14:38 35° W 20:29:20 10° SSW visible
18 Apr 6.7 17:07:21 10° WNW 18:42:47 59° WSW 18:59:07 10° SSE visible
19 Apr 7.5 21:22:01 10° NW 21:39:38 13° WNW 21:49:59 10° W visible
20 Apr 7.0 19:15:55 10° NW 20:12:17 31° W 20:27:33 10° SSW visible
